Latest Coastal Weather Observations for Spring Bay

IDT60701

Issued at 3:32 pm EST Tuesday 4 August 2015 (issued every 10 minutes, with the page automatically refreshed every 10 minutes)

About coastal observations | Map of coastal stations | Coastal observations for TAS | Marine services | Other Formats
Station Details ID: 092133 Name: SPRING BAY NTC AWS Lat: -42.55 Lon: 147.93 Height: 0.0 m
Data from the previous 72 hours. | See also: Recent months for locations in Tasmania
Date/Time
EST
Temp

°C
Wind Pressure Rain
since 9am
mm
Weather Cloud Vis
km
Sea
Height
m
Swell
Dir
 
Speed
knots
Gust
knots
hPa Trend Height
m
Period
s
Dir
04/02:30pm 10.3 - - - 1003.8 - - - - - - - - -
04/02:00pm 9.9 - - - 1004.7 - - - - - - - - -
04/01:30pm 9.7 - - - 1005.6 - - - - - - - - -
04/01:00pm 9.2 - - - 1006.4 - - - - - - - - -
04/12:30pm 8.5 - - - 1007.5 - - - - - - - - -
04/12:00pm 7.4 - - - 1008.2 - - - - - - - - -
04/11:30am 7.1 - - - 1009.0 - - - - - - - - -
04/11:00am 6.7 - - - 1009.8 - - - - - - - - -
04/10:30am 5.8 - - - 1010.3 - - - - - - - - -
04/10:00am 5.7 - - - 1011.1 - - - - - - - - -
04/09:30am 5.7 - - - 1011.7 - - - - - - - - -
04/09:00am 5.8 - - - 1012.0 - - - - - - - - -
04/08:30am 5.9 - - - 1012.3 - - - - - - - - -
04/08:00am 5.4 - - - 1012.4 - - - - - - - - -
04/07:30am 4.8 - - - 1012.6 - - - - - - - - -
04/07:00am 5.3 - - - 1012.9 - - - - - - - - -
04/06:30am 5.3 - - - 1013.2 - - - - - - - - -
04/06:00am 5.9 - - - 1013.4 - - - - - - - - -
04/05:30am 5.8 - - - 1013.5 - - - - - - - - -
04/05:00am 6.0 - - - 1013.7 - - - - - - - - -
04/04:30am 5.4 - - - 1013.6 - - - - - - - - -
04/04:00am 5.7 - - - 1014.1 - - - - - - - - -
04/03:30am 4.9 - - - 1014.3 - - - - - - - - -
04/03:00am 5.0 - - - 1014.5 - - - - - - - - -
04/02:30am 5.8 - - - 1015.0 - - - - - - - - -
04/02:00am 5.5 - - - 1015.2 - - - - - - - - -
04/01:30am 4.9 - - - 1015.6 - - - - - - - - -
04/01:00am 4.9 - - - 1015.8 - - - - - - - - -
04/12:30am 4.8 - - - 1016.2 - - - - - - - - -
04/12:00am 4.7 - - - 1016.4 - - - - - - - - -
 
Date/Time
EST
Temp

°C
Wind Pressure Rain
since 9am
mm
Weather Cloud Vis
km
Sea
Height
m
Swell
Dir
 
Speed
knots
Gust
knots
hPa Trend Height
m
Period
s
Dir
03/11:30pm 4.8 - - - 1016.4 - - - - - - - - -
03/11:00pm 4.9 - - - 1016.4 - - - - - - - - -
03/10:30pm 4.9 - - - 1016.3 - - - - - - - - -
03/10:00pm 5.0 - - - 1016.3 - - - - - - - - -
03/09:30pm 5.2 - - - 1016.0 - - - - - - - - -
03/09:00pm 5.5 - - - 1015.8 - - - - - - - - -
03/08:30pm 5.4 - - - 1015.5 - - - - - - - - -
03/08:00pm 4.8 - - - 1015.2 - - - - - - - - -
03/07:30pm 5.5 - - - 1014.1 - - - - - - - - -
03/07:00pm 5.9 - - - 1013.4 - - - - - - - - -
03/06:30pm 5.3 - - - 1013.0 - - - - - - - - -
03/06:00pm 5.9 - - - 1012.6 - - - - - - - - -
03/05:30pm 5.2 - - - 1011.7 - - - - - - - - -
03/05:00pm 5.5 - - - 1010.1 - - - - - - - - -
03/04:30pm 5.2 - - - 1009.1 - - - - - - - - -
03/04:00pm 5.5 - - - 1008.3 - - - - - - - - -
03/03:30pm 5.4 - - - 1007.1 - - - - - - - - -
03/03:00pm 5.5 - - - 1006.8 - - - - - - - - -
03/02:30pm 6.2 - - - 1005.4 - - - - - - - - -
03/02:00pm 7.3 - - - 1004.2 - - - - - - - - -
03/01:30pm 7.6 - - - 1003.8 - - - - - - - - -
03/01:00pm 7.4 - - - 1003.1 - - - - - - - - -
03/12:30pm 6.6 - - - 1003.1 - - - - - - - - -
03/12:00pm 6.0 - - - 1002.3 - - - - - - - - -
03/11:30am 6.0 - - - 1002.0 - - - - - - - - -
03/11:00am 6.0 - - - 1001.7 - - - - - - - - -
03/10:30am 5.7 - - - 1001.1 - - - - - - - - -
03/10:00am 5.2 - - - 1000.7 - - - - - - - - -
03/09:30am 5.0 - - - 1001.0 - - - - - - - - -
03/09:00am 4.7 - - - 1000.5 - - - - - - - - -
03/08:30am 4.1 - - - 1000.5 - - - - - - - - -
03/08:00am 4.1 - - - 1000.1 - - - - - - - - -
03/07:30am 3.9 - - - 999.6 - - - - - - - - -
03/07:00am 3.3 - - - 998.8 - - - - - - - - -
03/06:30am 3.0 - - - 997.9 - - - - - - - - -
03/06:00am 2.9 - - - 997.8 - - - - - - - - -
03/05:30am 2.2 - - - 997.5 - - - - - - - - -
03/05:00am 4.6 - - - 997.1 - - - - - - - - -
03/04:30am 4.5 - - - 996.3 - - - - - - - - -
03/04:00am 5.2 - - - 995.8 - - - - - - - - -
03/03:30am 5.0 - - - 995.5 - - - - - - - - -
03/03:00am 5.3 - - - 995.2 - - - - - - - - -
03/02:30am 5.3 - - - 995.1 - - - - - - - - -
03/02:00am 5.7 - - - 994.8 - - - - - - - - -
03/01:30am 5.3 - - - 994.8 - - - - - - - - -
03/01:00am 5.0 - - - 994.9 - - - - - - - - -
03/12:30am 5.6 - - - 995.2 - - - - - - - - -
03/12:00am 5.9 - - - 995.1 - - - - - - - - -
 
Date/Time
EST
Temp

°C
Wind Pressure Rain
since 9am
mm
Weather Cloud Vis
km
Sea
Height
m
Swell
Dir
 
Speed
knots
Gust
knots
hPa Trend Height
m
Period
s
Dir
02/11:30pm 5.8 - - - 995.3 - - - - - - - - -
02/11:00pm 6.2 - - - 995.1 - - - - - - - - -
02/10:30pm 6.0 - - - 995.8 - - - - - - - - -
02/10:00pm 6.4 - - - 995.6 - - - - - - - - -
02/09:30pm 6.5 - - - 996.3 - - - - - - - - -
02/09:00pm 6.8 - - - 996.3 - - - - - - - - -
02/08:30pm 7.0 - - - 996.5 - - - - - - - - -
02/08:00pm 6.7 - - - 997.3 - - - - - - - - -
02/07:30pm 6.6 - - - 997.0 - - - - - - - - -
02/07:00pm 6.7 - - - 997.1 - - - - - - - - -
02/06:30pm 6.4 - - - 996.8 - - - - - - - - -
02/06:00pm 6.7 - - - 996.7 - - - - - - - - -
02/05:30pm 6.9 - - - 996.5 - - - - - - - - -
02/05:00pm 6.8 - - - 996.3 - - - - - - - - -
02/04:30pm 7.1 - - - 996.2 - - - - - - - - -
02/04:00pm 7.2 - - - 995.7 - - - - - - - - -
02/03:30pm 6.9 - - - 995.2 - - - - - - - - -
02/03:00pm 6.2 - - - 995.0 - - - - - - - - -
02/02:30pm 6.3 - - - 995.4 - - - - - - - - -
02/02:00pm 6.8 - - - 994.5 - - - - - - - - -
02/01:30pm 10.9 - - - 993.2 - - - - - - - - -
02/01:00pm 11.5 - - - 993.0 - - - - - - - - -
02/12:30pm 11.3 - - - 993.2 - - - - - - - - -
02/12:00pm 11.1 - - - 993.6 - - - - - - - - -
02/11:30am 11.0 - - - 993.8 - - - - - - - - -
02/11:00am 11.1 - - - 994.4 - - - - - - - - -
02/10:30am 10.9 - - - 995.5 - - - - - - - - -
02/10:00am 10.5 - - - 996.3 - - - - - - - - -
02/09:30am 10.0 - - - 996.8 - - - - - - - - -
02/09:00am 9.7 - - - 998.0 - - - - - - - - -
02/08:30am 9.7 - - - 998.8 - - - - - - - - -
02/08:00am 9.2 - - - 999.2 - - - - - - - - -
02/07:30am 9.0 - - - 999.7 - - - - - - - - -
02/07:00am 8.8 - - - 1000.2 - - - - - - - - -
02/06:30am 8.4 - - - 1000.3 - - - - - - - - -
02/06:00am 7.7 - - - 1000.9 - - - - - - - - -
02/05:30am 7.4 - - - 1001.2 - - - - - - - - -
02/05:00am 7.4 - - - 1001.8 - - - - - - - - -
02/04:30am 7.2 - - - 1002.4 - - - - - - - - -
02/04:00am 7.5 - - - 1002.9 - - - - - - - - -
02/03:30am 7.3 - - - 1003.2 - - - - - - - - -
02/03:00am 7.0 - - - 1003.8 - - - - - - - - -
02/02:30am 7.1 - - - 1004.5 - - - - - - - - -
02/02:00am 7.1 - - - 1004.7 - - - - - - - - -

Other Formats:

Comma delimited format used in spreadsheet applications
http://www.bom.gov.au/fwo/IDT60701/IDT60701.95987.axf

JavaScript Object Notation format (JSON) in row-major order
http://www.bom.gov.au/fwo/IDT60701/IDT60701.95987.json